Weather History for Orr, MN

Change the Weather History Date:

Monday, May 27, 2013

  Actual Average Record
Temperature  
Mean Temperature 58 °F -  
Max Temperature 73 °F 64 °F 84 °F (2006)
Min Temperature 42 °F 39 °F 24 °F (2008)
Degree Days  
Heating Degree Days 8    
Growing Degree Days 8 (Base 50)    
Moisture  
Dew Point 33 °F    
Average Humidity 39    
Maximum Humidity 53    
Minimum Humidity 27    
Precipitation  
Precipitation 0.00 in - - ()
Sea Level Pressure  
Sea Level Pressure 29.98 in    
Wind  
Wind Speed 6 mph (SE)    
Max Wind Speed 15 mph    
Max Gust Speed 22 mph    
Visibility 10 miles    
Events      
Averages and records for this station are not official NWS values.
T = Trace of Precipitation, MM = Missing Value Source: NWS Daily Summary

Daily Weather History Graph

Daily Weather History Graph

Search for Another Location

Airport:

Trip Planner

Search our weather history database for the weather conditions in past years. The results will help you decide how hot, cold, wet, or windy it might be!

Date:

Astronomy

May. 27, 2013 Rise Set
Actual Time 5:19 AM CDT 8:58 PM CDT
Civil Twilight 4:40 AM CDT 9:37 PM CDT
Nautical Twilight 3:47 AM CDT 10:30 PM CDT
Astronomical Twilight 2:34 AM CDT 11:44 PM CDT
Moon 11:31 PM CDT (5/27) 8:00 AM CDT (5/27)
Length of Visible Light 16h 57m
Length of Day
15h 38m
Waning Gibbous, 91% of the Moon is Illuminated
May 27
Waning Gibbous
May 31
Last Quarter
Jun 8
New
Jun 16
First Quarter
Jun 23
Full

Hourly Weather History & Observations

Time (CDT) Temp. Windchill Dew Point Humidity Pressure Visibility Wind Dir Wind Speed Gust Speed Precip Events Conditions
12:13 AM 51.8 °F - 24.8 °F 35% 30.11 in 10.0 mi SE 6.9 mph - N/A   Clear
12:33 AM 50.0 °F - 24.8 °F 37% 30.10 in 10.0 mi SE 5.8 mph - N/A   Clear
12:53 AM 48.2 °F - 24.8 °F 40% 30.08 in 10.0 mi ESE 3.5 mph - N/A   Clear
1:13 AM 48.2 °F - 24.8 °F 40% 30.07 in 10.0 mi ESE 4.6 mph - N/A   Clear
1:33 AM 46.4 °F - 26.6 °F 46% 30.08 in 10.0 mi Calm Calm - N/A   Clear
1:53 AM 46.4 °F - 26.6 °F 46% 30.08 in 10.0 mi Calm Calm - N/A   Clear
2:13 AM 44.6 °F 43.1 °F 26.6 °F 49% 30.09 in 10.0 mi SE 3.5 mph - N/A   Clear
2:33 AM 44.6 °F 43.1 °F 26.6 °F 49% 30.08 in 10.0 mi SE 3.5 mph - N/A   Clear
2:53 AM 44.6 °F - 26.6 °F 49% 30.07 in 10.0 mi Calm Calm - N/A   Clear
3:13 AM 44.6 °F - 26.6 °F 49% 30.07 in 10.0 mi Calm Calm - N/A   Clear
3:33 AM 44.6 °F 43.1 °F 26.6 °F 49% 30.07 in 10.0 mi ESE 3.5 mph - N/A   Clear
3:53 AM 42.8 °F 41.1 °F 26.6 °F 53% 30.07 in 10.0 mi SE 3.5 mph - N/A   Clear
4:13 AM 44.6 °F 42.2 °F 26.6 °F 49% 30.08 in 10.0 mi SE 4.6 mph - N/A   Clear
4:33 AM 44.6 °F 43.1 °F 26.6 °F 49% 30.07 in 10.0 mi ESE 3.5 mph - N/A   Clear
4:53 AM 44.6 °F - 26.6 °F 49% 30.06 in 10.0 mi Calm Calm - N/A   Clear
5:13 AM 42.8 °F 41.1 °F 26.6 °F 53% 30.06 in 10.0 mi ESE 3.5 mph - N/A   Clear
5:33 AM 44.6 °F - 26.6 °F 49% 30.06 in 10.0 mi Calm Calm - N/A   Clear
5:53 AM 42.8 °F 41.1 °F 26.6 °F 53% 30.06 in 10.0 mi ESE 3.5 mph - N/A   Clear
6:13 AM 44.6 °F - 28.4 °F 53% 30.08 in 10.0 mi Calm Calm - N/A   Clear
6:33 AM 44.6 °F - 28.4 °F 53% 30.09 in 10.0 mi Calm Calm - N/A   Clear
6:53 AM 46.4 °F 44.3 °F 30.2 °F 53% 30.09 in 10.0 mi SE 4.6 mph - N/A   Clear
7:13 AM 48.2 °F - 30.2 °F 50% 30.09 in 10.0 mi SE 3.5 mph - N/A   Clear
7:33 AM 51.8 °F - 32.0 °F 47% 30.08 in 10.0 mi Calm Calm - N/A   Clear
7:53 AM 53.6 °F - 33.8 °F 47% 30.07 in 10.0 mi SE 4.6 mph - N/A   Clear
8:13 AM 55.4 °F - 33.8 °F 44% 30.06 in 10.0 mi SE 4.6 mph - N/A   Clear
8:33 AM 57.2 °F - 33.8 °F 41% 30.05 in 10.0 mi SE 4.6 mph - N/A   Clear
8:53 AM 59.0 °F - 33.8 °F 39% 30.04 in 10.0 mi East 5.8 mph - N/A   Clear
9:13 AM 60.8 °F - 32.0 °F 34% 30.04 in 10.0 mi East 5.8 mph - N/A   Clear
9:33 AM 62.6 °F - 33.8 °F 34% 30.03 in 10.0 mi SE 3.5 mph - N/A   Clear
9:53 AM 62.6 °F - 33.8 °F 34% 30.03 in 10.0 mi ESE 6.9 mph - N/A   Clear
10:13 AM 62.6 °F - 35.6 °F 37% 30.02 in 10.0 mi ESE 4.6 mph - N/A   Clear
10:33 AM 62.6 °F - 37.4 °F 39% 30.01 in 10.0 mi East 6.9 mph - N/A   Clear
10:53 AM 64.4 °F - 39.2 °F 40% 29.99 in 10.0 mi SSE 15.0 mph 19.6 mph N/A   Clear
11:14 AM 64.4 °F - 39.2 °F 40% 29.98 in 10.0 mi SE 13.8 mph 21.9 mph N/A   Clear
11:33 AM 66.2 °F - 39.2 °F 37% 29.98 in 10.0 mi SE 11.5 mph 18.4 mph N/A   Clear
11:53 AM 68.0 °F - 39.2 °F 35% 29.97 in 10.0 mi ESE 8.1 mph - N/A   Clear
12:13 PM 68.0 °F - 39.2 °F 35% 29.97 in 10.0 mi ESE 8.1 mph 18.4 mph N/A   Clear
12:33 PM 66.2 °F - 37.4 °F 35% 29.96 in 10.0 mi SE 5.8 mph 20.7 mph N/A   Clear
12:53 PM 69.8 °F - 37.4 °F 31% 29.96 in 10.0 mi ESE 10.4 mph - N/A   Clear
1:13 PM 69.8 °F - 35.6 °F 28% 29.96 in 10.0 mi SSE 9.2 mph 19.6 mph N/A   Clear
1:33 PM 71.6 °F - 35.6 °F 27% 29.94 in 10.0 mi SE 8.1 mph 16.1 mph N/A   Clear
1:53 PM 71.6 °F - 35.6 °F 27% 29.94 in 10.0 mi SE 9.2 mph - N/A   Clear
2:13 PM 71.6 °F - 37.4 °F 29% 29.93 in 10.0 mi SSE 11.5 mph 18.4 mph N/A   Clear
2:33 PM 73.4 °F - 37.4 °F 27% 29.92 in 10.0 mi SE 4.6 mph - N/A   Clear
2:53 PM 71.6 °F - 37.4 °F 29% 29.92 in 10.0 mi SSE 15.0 mph 21.9 mph N/A   Scattered Clouds
3:13 PM 69.8 °F - 39.2 °F 33% 29.93 in 10.0 mi SE 12.7 mph 19.6 mph N/A   Mostly Cloudy
3:33 PM 69.8 °F - 39.2 °F 33% 29.92 in 10.0 mi SSE 11.5 mph - N/A   Mostly Cloudy
3:53 PM 69.8 °F - 39.2 °F 33% 29.92 in 10.0 mi SE 12.7 mph 16.1 mph N/A   Mostly Cloudy
4:13 PM 69.8 °F - 39.2 °F 33% 29.92 in 10.0 mi SE 10.4 mph 19.6 mph N/A   Mostly Cloudy
4:33 PM 69.8 °F - 41.0 °F 35% 29.91 in 10.0 mi SSE 11.5 mph 19.6 mph N/A   Mostly Cloudy
4:53 PM 69.8 °F - 39.2 °F 33% 29.90 in 10.0 mi SE 9.2 mph - N/A   Mostly Cloudy
5:13 PM 68.0 °F - 37.4 °F 33% 29.91 in 10.0 mi SSE 11.5 mph 16.1 mph N/A   Mostly Cloudy
5:33 PM 68.0 °F - 37.4 °F 33% 29.90 in 10.0 mi South 10.4 mph 17.3 mph N/A   Mostly Cloudy
5:53 PM 66.2 °F - 37.4 °F 35% 29.89 in 10.0 mi SSE 12.7 mph 17.3 mph N/A   Mostly Cloudy
6:13 PM 66.2 °F - 35.6 °F 32% 29.89 in 10.0 mi SSE 9.2 mph 16.1 mph N/A   Mostly Cloudy
6:33 PM 66.2 °F - 35.6 °F 32% 29.88 in 10.0 mi SE 9.2 mph - N/A   Mostly Cloudy
6:53 PM 66.2 °F - 35.6 °F 32% 29.88 in 10.0 mi SE 8.1 mph - N/A   Mostly Cloudy
7:13 PM 64.4 °F - 35.6 °F 34% 29.89 in 10.0 mi SSE 9.2 mph - N/A   Overcast
7:33 PM 64.4 °F - 35.6 °F 34% 29.89 in 10.0 mi SSE 5.8 mph 9.2 mph N/A   Mostly Cloudy
7:54 PM 64.4 °F - 35.6 °F 34% 29.89 in 10.0 mi SSE 5.8 mph - N/A   Mostly Cloudy
8:13 PM 64.4 °F - 35.6 °F 34% 29.88 in 10.0 mi SSE 5.8 mph - N/A   Scattered Clouds
8:33 PM 64.4 °F - 37.4 °F 37% 29.88 in 10.0 mi SE 3.5 mph - N/A   Mostly Cloudy
8:53 PM 62.6 °F - 37.4 °F 39% 29.87 in 10.0 mi SE 6.9 mph - N/A   Overcast
9:13 PM 62.6 °F - 37.4 °F 39% 29.88 in 10.0 mi SSE 3.5 mph - N/A   Overcast
9:33 PM 62.6 °F - 35.6 °F 37% 29.88 in 10.0 mi SE 4.6 mph - N/A   Overcast
9:53 PM 62.6 °F - 35.6 °F 37% 29.89 in 10.0 mi SE 5.8 mph - N/A   Overcast
10:13 PM 60.8 °F - 33.8 °F 36% 29.89 in 10.0 mi SE 6.9 mph - N/A   Overcast
10:34 PM 60.8 °F - 33.8 °F 36% 29.88 in 10.0 mi SE 10.4 mph - N/A   Mostly Cloudy
10:53 PM 60.8 °F - 32.0 °F 34% 29.88 in 10.0 mi SE 6.9 mph - N/A   Scattered Clouds
11:13 PM 57.2 °F - 33.8 °F 41% 29.88 in 10.0 mi SE 5.8 mph - N/A   Clear
11:33 PM 57.2 °F - 32.0 °F 38% 29.86 in 10.0 mi ESE 8.1 mph - N/A   Scattered Clouds
11:53 PM 55.4 °F - 30.2 °F 38% 29.86 in 10.0 mi SE 6.9 mph - N/A   Scattered Clouds